Time,TemperatureF,DewpointF,PressureIn,WindDirection,WindDirectionDegrees,WindSpeedMPH,WindSpeedGustMPH,Humidity,HourlyPrecipIn,Conditions,Clouds,dailyrainin,SoftwareType,DateUTC
2013-11-21 00:02:00,-23.0,-29.0,30.22,West,269,0.0,0.0,71,0.00,,,0.00,,2013-11-21 09:02:00,
2013-11-21 00:11:00,-23.0,-29.0,30.22,West,269,0.0,0.0,71,0.00,,,0.00,,2013-11-21 09:11:00,
2013-11-21 00:22:00,-24.0,-30.0,30.23,West,269,0.0,0.0,73,0.00,,,0.00,,2013-11-21 09:22:00,
2013-11-21 00:33:00,-24.0,-30.0,30.23,West,269,0.0,0.0,73,0.00,,,0.00,,2013-11-21 09:33:00,
2013-11-21 00:43:00,-24.0,-30.0,30.23,West,269,0.0,0.0,73,0.00,,,0.00,,2013-11-21 09:43:00,
2013-11-21 00:53:00,-23.0,-29.0,30.22,West,269,0.0,0.0,72,0.00,,,0.00,,2013-11-21 09:53:00,
2013-11-21 01:03:00,-23.0,-29.0,30.22,West,269,0.0,0.0,72,0.00,,,0.00,,2013-11-21 10:03:00,
2013-11-21 01:13:00,-23.0,-29.0,30.22,West,269,0.0,0.0,72,0.00,,,0.00,,2013-11-21 10:13:00,
2013-11-21 01:23:00,-23.0,-29.0,30.22,West,269,0.0,0.0,73,0.00,,,0.00,,2013-11-21 10:23:00,
2013-11-21 01:33:00,-23.0,-29.0,30.22,West,269,0.0,0.0,73,0.00,,,0.00,,2013-11-21 10:33:00,
2013-11-21 01:42:00,-23.0,-29.0,30.22,West,269,0.0,0.0,73,0.00,,,0.00,,2013-11-21 10:42:00,
2013-11-21 01:53:00,-23.0,-29.0,30.20,West,269,0.0,0.0,73,0.00,,,0.00,,2013-11-21 10:53:00,
2013-11-21 02:03:00,-23.0,-29.0,30.20,West,269,0.0,0.0,73,0.00,,,0.00,,2013-11-21 11:03:00,
2013-11-21 02:12:00,-23.0,-29.0,30.20,West,269,0.0,0.0,73,0.00,,,0.00,,2013-11-21 11:12:00,
2013-11-21 02:22:00,-23.0,-29.0,30.20,West,269,0.0,0.0,73,0.00,,,0.00,,2013-11-21 11:22:00,
2013-11-21 02:33:00,-23.0,-29.0,30.20,West,269,0.0,0.0,73,0.00,,,0.00,,2013-11-21 11:33:00,
2013-11-21 02:43:00,-23.0,-29.0,30.20,West,269,0.0,0.0,73,0.00,,,0.00,,2013-11-21 11:43:00,
2013-11-21 02:52:00,-18.0,-23.0,30.19,West,269,0.0,0.0,75,0.00,,,0.00,,2013-11-21 11:52:00,
2013-11-21 03:02:00,-18.0,-23.0,30.19,West,269,0.0,0.0,75,0.00,,,0.00,,2013-11-21 12:02:00,
2013-11-21 03:11:00,-18.0,-23.0,30.19,West,269,0.0,0.0,75,0.00,,,0.00,,2013-11-21 12:11:00,
2013-11-21 03:21:00,-18.0,-24.0,30.19,West,269,0.0,0.0,74,0.00,,,0.00,,2013-11-21 12:21:00,
2013-11-21 03:32:00,-18.0,-24.0,30.19,West,269,0.0,0.0,74,0.00,,,0.00,,2013-11-21 12:32:00,
2013-11-21 03:42:00,-18.0,-24.0,30.19,West,269,0.0,0.0,74,0.00,,,0.00,,2013-11-21 12:42:00,
2013-11-21 03:52:00,-18.0,-24.0,30.18,West,269,0.0,0.0,74,0.00,,,0.00,,2013-11-21 12:52:00,
2013-11-21 04:11:00,-18.0,-24.0,30.18,West,269,0.0,0.0,74,0.00,,,0.00,,2013-11-21 13:11:00,
2013-11-21 04:21:00,-21.0,-27.0,30.17,West,269,0.0,0.0,72,0.00,,,0.00,,2013-11-21 13:21:00,
2013-11-21 04:32:00,-21.0,-27.0,30.17,West,269,0.0,0.0,72,0.00,,,0.00,,2013-11-21 13:32:00,
2013-11-21 04:42:00,-21.0,-27.0,30.17,West,269,0.0,0.0,72,0.00,,,0.00,,2013-11-21 13:42:00,
2013-11-21 04:52:00,-21.0,-27.0,30.16,West,269,0.0,0.0,74,0.00,,,0.00,,2013-11-21 13:52:00,
2013-11-21 05:02:00,-21.0,-27.0,30.16,West,269,0.0,0.0,74,0.00,,,0.00,,2013-11-21 14:02:00,
2013-11-21 05:11:00,-21.0,-27.0,30.16,West,269,0.0,0.0,74,0.00,,,0.00,,2013-11-21 14:11:00,
2013-11-21 05:22:00,-22.0,-28.0,30.15,West,269,0.0,0.0,74,0.00,,,0.00,,2013-11-21 14:22:00,
2013-11-21 05:32:00,-22.0,-28.0,30.15,West,269,0.0,0.0,74,0.00,,,0.00,,2013-11-21 14:32:00,
2013-11-21 05:42:00,-22.0,-28.0,30.15,West,269,0.0,0.0,74,0.00,,,0.00,,2013-11-21 14:42:00,
2013-11-21 05:52:00,-22.0,-28.0,30.14,West,269,0.0,0.0,71,0.00,,,0.00,,2013-11-21 14:52:00,
2013-11-21 06:02:00,-22.0,-28.0,30.14,West,269,0.0,0.0,71,0.00,,,0.00,,2013-11-21 15:02:00,
2013-11-21 06:12:00,-22.0,-28.0,30.14,West,269,0.0,0.0,71,0.00,,,0.00,,2013-11-21 15:12:00,
2013-11-21 06:22:00,-22.0,-28.0,30.13,West,269,0.0,0.0,73,0.00,,,0.00,,2013-11-21 15:22:00,
2013-11-21 06:33:00,-22.0,-28.0,30.13,West,269,0.0,0.0,73,0.00,,,0.00,,2013-11-21 15:33:00,
2013-11-21 06:43:00,-22.0,-28.0,30.13,West,269,0.0,0.0,73,0.00,,,0.00,,2013-11-21 15:43:00,
2013-11-21 06:53:00,-22.0,-28.0,30.12,West,269,0.0,0.0,72,0.00,,,0.00,,2013-11-21 15:53:00,
2013-11-21 07:03:00,-22.0,-28.0,30.12,West,269,0.0,0.0,72,0.00,,,0.00,,2013-11-21 16:03:00,
2013-11-21 07:13:00,-22.0,-28.0,30.12,West,269,0.0,0.0,72,0.00,,,0.00,,2013-11-21 16:13:00,
2013-11-21 07:23:00,-21.0,-27.0,30.11,West,269,0.0,0.0,73,0.00,,,0.00,,2013-11-21 16:23:00,
2013-11-21 07:33:00,-21.0,-27.0,30.11,West,269,0.0,0.0,73,0.00,,,0.00,,2013-11-21 16:33:00,
2013-11-21 07:42:00,-21.0,-27.0,30.11,West,269,0.0,0.0,73,0.00,,,0.00,,2013-11-21 16:42:00,
2013-11-21 07:53:00,-21.0,-27.0,30.11,West,269,0.0,0.0,73,0.00,,,0.00,,2013-11-21 16:53:00,
2013-11-21 08:03:00,-21.0,-27.0,30.11,West,269,0.0,0.0,73,0.00,,,0.00,,2013-11-21 17:03:00,
2013-11-21 08:12:00,-21.0,-27.0,30.11,West,269,0.0,0.0,73,0.00,,,0.00,,2013-11-21 17:12:00,
2013-11-21 08:22:00,-21.0,-27.0,30.09,West,269,0.0,0.0,73,0.00,,,0.00,,2013-11-21 17:22:00,
2013-11-21 08:33:00,-21.0,-27.0,30.09,West,269,0.0,0.0,73,0.00,,,0.00,,2013-11-21 17:33:00,
2013-11-21 08:42:00,-21.0,-27.0,30.09,West,269,0.0,0.0,73,0.00,,,0.00,,2013-11-21 17:42:00,
2013-11-21 08:52:00,-21.0,-27.0,30.09,West,269,0.0,0.0,74,0.00,,,0.00,,2013-11-21 17:52:00,
2013-11-21 09:02:00,-21.0,-27.0,30.09,West,269,0.0,0.0,74,0.00,,,0.00,,2013-11-21 18:02:00,
2013-11-21 09:12:00,-21.0,-27.0,30.09,West,269,0.0,0.0,74,0.00,,,0.00,,2013-11-21 18:12:00,
2013-11-21 09:21:00,-21.0,-27.0,30.09,West,269,0.0,0.0,73,0.00,,,0.00,,2013-11-21 18:21:00,
2013-11-21 09:32:00,-21.0,-27.0,30.09,West,269,0.0,0.0,73,0.00,,,0.00,,2013-11-21 18:32:00,
2013-11-21 09:42:00,-21.0,-27.0,30.09,West,269,0.0,0.0,73,0.00,,,0.00,,2013-11-21 18:42:00,
2013-11-21 09:52:00,-20.0,-26.0,30.08,West,269,0.0,0.0,74,0.00,,,0.00,,2013-11-21 18:52:00,
2013-11-21 10:02:00,-20.0,-26.0,30.08,West,269,0.0,0.0,74,0.00,,,0.00,,2013-11-21 19:02:00,
2013-11-21 10:22:00,-20.0,-25.0,30.07,West,269,0.0,0.0,75,0.00,,,0.00,,2013-11-21 19:22:00,
2013-11-21 10:32:00,-20.0,-25.0,30.07,West,269,0.0,0.0,75,0.00,,,0.00,,2013-11-21 19:32:00,
2013-11-21 10:42:00,-20.0,-25.0,30.07,West,269,0.0,0.0,75,0.00,,,0.00,,2013-11-21 19:42:00,
2013-11-21 10:52:00,-19.0,-25.0,30.06,West,269,0.0,0.0,74,0.00,,,0.00,,2013-11-21 19:52:00,
2013-11-21 11:02:00,-19.0,-25.0,30.06,West,269,0.0,0.0,74,0.00,,,0.00,,2013-11-21 20:02:00,
2013-11-21 11:12:00,-19.0,-25.0,30.06,West,269,0.0,0.0,74,0.00,,,0.00,,2013-11-21 20:12:00,
2013-11-21 11:21:00,-15.0,-20.0,30.06,West,269,0.0,0.0,76,0.00,,,0.00,,2013-11-21 20:21:00,
2013-11-21 11:32:00,-15.0,-20.0,30.06,West,269,0.0,0.0,76,0.00,,,0.00,,2013-11-21 20:32:00,
2013-11-21 11:42:00,-15.0,-20.0,30.06,West,269,0.0,0.0,76,0.00,,,0.00,,2013-11-21 20:42:00,
2013-11-21 11:52:00,-15.0,-21.0,30.04,West,269,0.0,0.0,75,0.00,,,0.00,,2013-11-21 20:52:00,
2013-11-21 12:02:00,-15.0,-21.0,30.04,West,269,0.0,0.0,75,0.00,,,0.00,,2013-11-21 21:02:00,
2013-11-21 12:11:00,-15.0,-21.0,30.04,West,269,0.0,0.0,75,0.00,,,0.00,,2013-11-21 21:11:00,
2013-11-21 12:21:00,-13.0,-18.0,30.03,West,269,0.0,0.0,77,0.00,,,0.00,,2013-11-21 21:21:00,
2013-11-21 12:34:00,-13.0,-18.0,30.03,West,269,0.0,0.0,77,0.00,,,0.00,,2013-11-21 21:34:00,
2013-11-21 12:43:00,-13.0,-18.0,30.03,West,269,0.0,0.0,77,0.00,,,0.00,,2013-11-21 21:43:00,
2013-11-21 12:54:00,-11.0,-16.0,30.03,West,269,0.0,0.0,77,0.00,,,0.00,,2013-11-21 21:54:00,
2013-11-21 13:03:00,-11.0,-16.0,30.03,West,269,0.0,0.0,77,0.00,,,0.00,,2013-11-21 22:03:00,
2013-11-21 13:13:00,-11.0,-16.0,30.03,West,269,0.0,0.0,77,0.00,,,0.00,,2013-11-21 22:13:00,
2013-11-21 13:23:00,-9.0,-14.0,30.02,West,269,0.0,0.0,77,0.00,,,0.00,,2013-11-21 22:23:00,
2013-11-21 13:33:00,-9.0,-14.0,30.02,West,269,0.0,0.0,77,0.00,,,0.00,,2013-11-21 22:33:00,
2013-11-21 13:42:00,-9.0,-14.0,30.02,West,269,0.0,0.0,77,0.00,,,0.00,,2013-11-21 22:42:00,
2013-11-21 13:53:00,-12.0,-19.0,30.01,West,269,0.0,0.0,71,0.00,,,0.00,,2013-11-21 22:53:00,
2013-11-21 14:02:00,-12.0,-19.0,30.01,West,269,0.0,0.0,71,0.00,,,0.00,,2013-11-21 23:02:00,
2013-11-21 14:12:00,-12.0,-19.0,30.01,West,269,0.0,0.0,71,0.00,,,0.00,,2013-11-21 23:12:00,
2013-11-21 14:22:00,-14.0,-20.0,29.99,West,269,0.0,0.0,74,0.00,,,0.00,,2013-11-21 23:22:00,
2013-11-21 14:33:00,-14.0,-20.0,29.99,West,269,0.0,0.0,74,0.00,,,0.00,,2013-11-21 23:33:00,
2013-11-21 14:42:00,-14.0,-20.0,29.99,West,269,0.0,0.0,74,0.00,,,0.00,,2013-11-21 23:42:00,
2013-11-21 14:53:00,-13.0,-18.0,29.98,West,269,0.0,0.0,77,0.00,,,0.00,,2013-11-21 23:53:00,
2013-11-21 15:02:00,-13.0,-18.0,29.98,West,269,0.0,0.0,77,0.00,,,0.00,,2013-11-22 00:02:00,
2013-11-21 15:11:00,-13.0,-18.0,29.98,West,269,0.0,0.0,77,0.00,,,0.00,,2013-11-22 00:11:00,
2013-11-21 15:22:00,-14.0,-20.0,29.96,West,269,0.0,0.0,74,0.00,,,0.00,,2013-11-22 00:22:00,
2013-11-21 15:32:00,-14.0,-20.0,29.96,West,269,0.0,0.0,74,0.00,,,0.00,,2013-11-22 00:32:00,
2013-11-21 15:42:00,-14.0,-20.0,29.96,West,269,0.0,0.0,74,0.00,,,0.00,,2013-11-22 00:42:00,
2013-11-21 15:52:00,-14.0,-20.0,29.93,West,269,0.0,0.0,75,0.00,,,0.00,,2013-11-22 00:52:00,
2013-11-21 16:01:00,-14.0,-20.0,29.93,West,269,0.0,0.0,75,0.00,,,0.00,,2013-11-22 01:01:00,
2013-11-21 16:12:00,-14.0,-20.0,29.93,West,269,0.0,0.0,75,0.00,,,0.00,,2013-11-22 01:12:00,
2013-11-21 16:22:00,-14.0,-20.0,29.91,West,269,0.0,0.0,74,0.00,,,0.00,,2013-11-22 01:22:00,
2013-11-21 16:32:00,-14.0,-20.0,29.91,West,269,0.0,0.0,74,0.00,,,0.00,,2013-11-22 01:32:00,
2013-11-21 16:42:00,-14.0,-20.0,29.91,West,269,0.0,0.0,74,0.00,,,0.00,,2013-11-22 01:42:00,
2013-11-21 16:52:00,-14.0,-19.0,29.90,West,269,0.0,0.0,76,0.00,,,0.00,,2013-11-22 01:52:00,
2013-11-21 17:02:00,-14.0,-19.0,29.90,West,269,0.0,0.0,76,0.00,,,0.00,,2013-11-22 02:02:00,
2013-11-21 17:11:00,-14.0,-19.0,29.90,West,269,0.0,0.0,76,0.00,,,0.00,,2013-11-22 02:11:00,
2013-11-21 17:21:00,-14.0,-20.0,29.88,West,269,0.0,0.0,75,0.00,,,0.00,,2013-11-22 02:21:00,
2013-11-21 17:32:00,-14.0,-20.0,29.88,West,269,0.0,0.0,75,0.00,,,0.00,,2013-11-22 02:32:00,
2013-11-21 17:42:00,-14.0,-20.0,29.88,West,269,0.0,0.0,75,0.00,,,0.00,,2013-11-22 02:42:00,
2013-11-21 17:53:00,-13.0,-18.0,29.86,West,269,0.0,0.0,76,0.00,,,0.00,,2013-11-22 02:53:00,
2013-11-21 18:02:00,-13.0,-18.0,29.86,West,269,0.0,0.0,76,0.00,,,0.00,,2013-11-22 03:02:00,
2013-11-21 18:11:00,-13.0,-18.0,29.86,West,269,0.0,0.0,76,0.00,,,0.00,,2013-11-22 03:11:00,
2013-11-21 18:21:00,-12.0,-17.0,29.83,West,269,0.0,0.0,77,0.00,,,0.00,,2013-11-22 03:21:00,
2013-11-21 18:33:00,-12.0,-17.0,29.83,West,269,0.0,0.0,77,0.00,,,0.00,,2013-11-22 03:33:00,
2013-11-21 18:43:00,-12.0,-17.0,29.83,West,269,0.0,0.0,77,0.00,,,0.00,,2013-11-22 03:43:00,
2013-11-21 18:54:00,-10.0,-15.0,29.81,West,269,0.0,0.0,77,0.00,,,0.00,,2013-11-22 03:54:00,
2013-11-21 19:03:00,-10.0,-15.0,29.81,West,269,0.0,0.0,77,0.00,,,0.00,,2013-11-22 04:03:00,
2013-11-21 19:13:00,-10.0,-15.0,29.81,West,269,0.0,0.0,77,0.00,,,0.00,,2013-11-22 04:13:00,
2013-11-21 19:23:00,-9.0,-14.0,29.79,West,269,0.0,0.0,78,0.00,,,0.00,,2013-11-22 04:23:00,
2013-11-21 19:33:00,-9.0,-14.0,29.79,West,269,0.0,0.0,78,0.00,,,0.00,,2013-11-22 04:33:00,
2013-11-21 19:43:00,-9.0,-14.0,29.79,West,269,0.0,0.0,78,0.00,,,0.00,,2013-11-22 04:43:00,
2013-11-21 19:52:00,-7.0,-12.0,29.77,West,269,0.0,0.0,79,0.00,,,0.00,,2013-11-22 04:52:00,
2013-11-21 20:02:00,-7.0,-12.0,29.77,West,269,0.0,0.0,79,0.00,,,0.00,,2013-11-22 05:02:00,
2013-11-21 20:12:00,-7.0,-12.0,29.77,West,269,0.0,0.0,79,0.00,,,0.00,,2013-11-22 05:12:00,
2013-11-21 20:22:00,-6.0,-11.0,29.75,West,269,0.0,0.0,79,0.00,,,0.00,,2013-11-22 05:22:00,
2013-11-21 20:32:00,-6.0,-11.0,29.75,West,269,0.0,0.0,79,0.00,,,0.00,,2013-11-22 05:32:00,
2013-11-21 20:43:00,-6.0,-11.0,29.75,West,269,0.0,0.0,79,0.00,,,0.00,,2013-11-22 05:43:00,
2013-11-21 20:52:00,-4.0,-9.0,29.72,West,269,0.0,0.0,79,0.00,,,0.00,,2013-11-22 05:52:00,
2013-11-21 21:02:00,-4.0,-9.0,29.72,West,269,0.0,0.0,79,0.00,,,0.00,,2013-11-22 06:02:00,
2013-11-21 21:12:00,-4.0,-9.0,29.72,West,269,0.0,0.0,79,0.00,,,0.00,,2013-11-22 06:12:00,
2013-11-21 21:21:00,-3.0,-8.0,29.68,West,269,0.0,0.0,80,0.00,,,0.00,,2013-11-22 06:21:00,
2013-11-21 21:32:00,-3.0,-8.0,29.68,West,269,0.0,0.0,80,0.00,,,0.00,,2013-11-22 06:32:00,
2013-11-21 21:42:00,-3.0,-8.0,29.68,West,269,0.0,0.0,80,0.00,,,0.00,,2013-11-22 06:42:00,
2013-11-21 21:52:00,-1.0,-6.0,29.65,West,269,0.0,0.0,80,0.00,,,0.00,,2013-11-22 06:52:00,
2013-11-21 22:02:00,-1.0,-6.0,29.65,West,269,0.0,0.0,80,0.00,,,0.00,,2013-11-22 07:02:00,
2013-11-21 22:12:00,-1.0,-6.0,29.65,West,269,0.0,0.0,80,0.00,,,0.00,,2013-11-22 07:12:00,
2013-11-21 22:21:00,-1.0,-5.0,29.61,West,269,0.0,0.0,81,0.00,,,0.00,,2013-11-22 07:21:00,
2013-11-21 22:32:00,-1.0,-5.0,29.61,West,269,0.0,0.0,81,0.00,,,0.00,,2013-11-22 07:32:00,
2013-11-21 22:42:00,-1.0,-5.0,29.61,West,269,0.0,0.0,81,0.00,,,0.00,,2013-11-22 07:42:00,
2013-11-21 22:52:00,1.0,-3.0,29.59,West,269,0.0,0.0,81,0.00,,,0.00,,2013-11-22 07:52:00,
2013-11-21 23:01:00,1.0,-3.0,29.59,West,269,0.0,0.0,81,0.00,,,0.00,,2013-11-22 08:01:00,
2013-11-21 23:11:00,1.0,-3.0,29.59,West,269,0.0,0.0,81,0.00,,,0.00,,2013-11-22 08:11:00,
2013-11-21 23:21:00,2.0,-2.0,29.56,West,269,0.0,0.0,81,0.00,,,0.00,,2013-11-22 08:21:00,
2013-11-21 23:32:00,2.0,-2.0,29.56,West,269,0.0,0.0,81,0.00,,,0.00,,2013-11-22 08:32:00,
2013-11-21 23:42:00,2.0,-2.0,29.56,West,269,0.0,0.0,81,0.00,,,0.00,,2013-11-22 08:42:00,
2013-11-21 23:52:00,2.0,-2.0,29.53,West,269,0.0,0.0,82,0.00,,,0.00,,2013-11-22 08:52:00,